Location: JKWMA (FRAC)
(33.1803°N, 84.5512°W)
Time: 04:28:10
(UTC-04:00)

N. Korean satellite - Visible Passes

Search period start: 21 March 2019 00:00
Search period end: 31 March 2019 00:00
Orbit: 456 x 510 km, 97.2° (Epoch: 20 March)

Date Brightness Start Highest point End Pass type
(mag) Time Alt. Az. Time Alt. Az. Time Alt. Az.
22 Mar 9.7 07:01:34 10° NE 07:04:15 20° E 07:06:57 10° SE visible
26 Mar 9.8 06:55:55 10° NE 06:58:22 17° E 07:00:49 10° SE visible
30 Mar 9.9 06:50:19 10° ENE 06:52:25 15° E 06:54:32 10° SE visible
